Regional Weather Roundup
Issued by NWS

Home | Current Version | Previous Version | Graphics & Text | Print | Product List | Glossary On
Versions: 1 2 3 4 5 6 7 8 9 10 11 12 13 14 15 16 17 18 19 20 21 22 23 24 25 26 27 28 29 30 31 32 33 34 35 36 37 38 39 40 41 42 43 44 45 46 47 48 49 50
000
ASUS43 KFSD 251310
RWRSD

WEATHER ROUNDUP FOR SOUTH DAKOTA
NATIONAL WEATHER SERVICE SIOUX FALLS SD
800 AM CDT WED APR 25 2018

NOTE: "FAIR" INDICATES FEW OR NO CLOUDS BELOW 12,000 FEET WITH NO
SIGNIFICANT WEATHER AND/OR OBSTRUCTIONS TO VISIBILITY.


SDZ001>005-009-010-012>017-251400-
NORTHWEST AND NORTH CENTRAL SOUTH DAKOTA

CITY           SKY/WX    TMP DP  RH WIND       PRES   REMARKS
BUFFALO          N/A     35  25  66 SW9       30.13F WCI  28
FAITH            N/A     34  29  82 S7        30.24F WCI  28
MOBRIDGE       SUNNY     34  29  82 SE5       30.22F WCI  30
$$

SDZ012>016-024>037-041>051-057-063-072>074-251400-
SOUTHWEST AND SOUTH CENTRAL SOUTH DAKOTA

CITY           SKY/WX    TMP DP  RH WIND       PRES   REMARKS
RAPID CTY ARPT SUNNY     29  23  78 SE5       30.25F WCI  24
PIERRE         SUNNY     32  30  92 SW8       30.28F WCI  25
CUSTER         SUNNY     31  20  63 W10       30.25F WCI  22
ELLSWORTH AFB  SUNNY     33  25  74 SW7       30.23F WCI  26
PHILIP         SUNNY     32  28  85 W7        30.30F WCI  26
PINE RIDGE     SUNNY     24  23  96 CALM      30.32S
SPEARFISH      FAIR      34  25  69 CALM      30.21F
WINNER         FAIR      37  29  72 W6        30.31F
$$

SDZ004>011-016>023-039-040-251400-
NORTHEAST SOUTH DAKOTA

CITY           SKY/WX    TMP DP  RH WIND       PRES   REMARKS
ABERDEEN       SUNNY     33  30  88 S5        30.28F WCI  29
WATERTOWN      SUNNY     33  31  92 NW3       30.27S
BROOKINGS      SUNNY     33  29  85 CALM      30.28F
SISSETON         N/A     36  31  82 S6        30.27F
$$

SDZ017-020-022-023-036>040-048>070-251400-
SOUTHEAST SOUTH DAKOTA

CITY           SKY/WX    TMP DP  RH WIND       PRES   REMARKS
SIOUX FALLS    MOSUNNY   37  29  72 N3        30.29R
HURON          SUNNY     35  31  85 CALM      30.30F
CHAMBERLAIN    SUNNY     34  34 100 W5        30.31F WCI  30
MITCHELL       SUNNY     34  30  85 W5        30.32S WCI  30
YANKTON        SUNNY     38  33  82 NW10      30.31R
$$

ABBREVIATIONS USED IN REMARKS
   TC - TEMPERATURE IN CELSIUS
  WCI - WIND CHILL INDEX
   HX - HEAT INDEX
  VSB - VISIBILITY





USA.gov is the U.S. government's official web portal to all federal, state and local government web resources and services.